KAZEOSAT 2

Last updated on Wed Sep 17 2025 00:02:30 GMT+0000 (Coordinated Universal Time)

1 40010U 14033A 25259.63899784 .00000618 00000+0 78389-4 0 9996 2 40010 97.5631 108.4094 0009664 135.1268 225.0731 14.84954686608352
UTC large
Height (km)
Speed (km/s)
/
Latitude / Longitude
Inclination (degrees)
Orbital Period (minutes)
Azimuth
Elevation
Range (km)
Doppler Factor

Next 0 passes for location: London (51.5072 / 0.1276)

Sorry there are no passes over London.